User: anonymous   Login
Location: Unspecified
(0.0000°N, 0.0000°E)
Time: 19:12:07
(UTC+00:00)
Language:

SOHLA-1 (MAIDO-1) - Orbit

View from above orbital plane
View from above orbital plane
View from above satellite
View from above satellite

Ground track
Ground track

The orbit data is extracted from the following two-line orbital elements,

1 33496U 09002E   19341.50766597  .00000031  00000-0  13504-4 0  9990
2 33496  98.3874 166.1439 0006964  37.6141 322.5551 14.71841499583549
Epoch (UTC): 07 December 2019 12:11:02
Eccentricity: 0.0006964
inclination: 98.3874°
perigee height: 650 km
apogee height: 660 km
right ascension of ascending node: 166.1439°
argument of perigee: 37.6141°
revolutions per day: 14.71841499
mean anomaly at epoch: 322.5551°
orbit number at epoch: 58354

The dashed part of the orbit path shows where the satellite is in the earth's shadow,  

DLR